Time,TemperatureF,DewpointF,PressureIn,WindDirection,WindDirectionDegrees,WindSpeedMPH,WindSpeedGustMPH,Humidity,HourlyPrecipIn,Conditions,Clouds,dailyrainin,SolarRadiationWatts/m^2,SoftwareType,DateUTC
2013-02-01 00:00:00,57.2,44.7,30.14,NNE,19,8.0,8.0,63,0.00,,FEW008,0.01,74.00,VWS V14.01,2013-02-01 05:00:00,
2013-02-01 00:01:00,57.2,44.7,30.14,NW,316,5.0,8.0,63,0.00,,FEW008,0.01,74.00,VWS V14.01,2013-02-01 05:01:00,
2013-02-01 00:06:00,57.2,44.7,30.14,North,360,5.0,7.0,63,0.00,,FEW008,0.00,74.00,VWS V14.01,2013-02-01 05:06:00,
2013-02-01 00:11:00,57.2,44.7,30.14,North,360,5.0,9.0,63,0.00,,FEW008,0.00,74.00,VWS V14.01,2013-02-01 05:11:00,
2013-02-01 00:16:00,57.2,44.7,30.15,WNW,302,4.0,6.0,63,0.00,,FEW008,0.00,74.00,VWS V14.01,2013-02-01 05:16:00,
2013-02-01 00:21:00,57.1,44.6,30.14,NNW,346,5.0,11.0,63,0.00,,FEW008,0.00,74.00,VWS V14.01,2013-02-01 05:21:00,
2013-02-01 00:26:00,57.1,44.2,30.14,NW,304,11.0,15.0,62,0.00,,FEW008,0.00,74.00,VWS V14.01,2013-02-01 05:26:00,
2013-02-01 00:31:00,57.1,43.8,30.15,North,9,5.0,11.0,61,0.00,,FEW008,0.00,74.00,VWS V14.01,2013-02-01 05:31:00,
2013-02-01 00:36:00,56.9,43.2,30.14,NNW,330,6.0,10.0,60,0.00,,FEW008,0.00,74.00,VWS V14.01,2013-02-01 05:36:00,
2013-02-01 00:41:00,56.8,42.6,30.14,North,9,4.0,10.0,59,0.00,,FEW008,0.00,74.00,VWS V14.01,2013-02-01 05:41:00,
2013-02-01 00:46:00,56.7,42.5,30.15,North,5,5.0,10.0,59,0.00,,FEW008,0.00,74.00,VWS V14.01,2013-02-01 05:46:00,
2013-02-01 00:51:00,56.7,43.4,30.14,North,350,6.0,8.0,61,0.00,,FEW008,0.00,74.00,VWS V14.01,2013-02-01 05:51:00,
2013-02-01 00:56:00,56.5,42.8,30.14,NNW,346,3.0,10.0,60,0.00,,FEW008,0.00,74.00,VWS V14.01,2013-02-01 05:56:00,
2013-02-01 01:01:00,56.3,42.6,30.15,WNW,302,6.0,9.0,60,0.00,,FEW008,0.00,74.00,VWS V14.01,2013-02-01 06:01:00,
2013-02-01 01:06:00,56.3,42.6,30.15,NNW,340,6.0,8.0,60,0.00,,FEW008,0.00,74.00,VWS V14.01,2013-02-01 06:06:00,
2013-02-01 01:11:00,56.3,43.0,30.14,NNW,338,5.0,6.0,61,0.00,,FEW008,0.00,74.00,VWS V14.01,2013-02-01 06:11:00,
2013-02-01 01:16:00,56.2,43.0,30.15,NNW,341,6.0,8.0,61,0.00,,FEW008,0.00,74.00,VWS V14.01,2013-02-01 06:16:00,
2013-02-01 01:21:00,56.0,42.3,30.15,NW,325,6.0,11.0,60,0.00,,FEW008,0.00,74.00,VWS V14.01,2013-02-01 06:21:00,
2013-02-01 01:26:00,56.1,42.0,30.15,NNE,14,4.0,11.0,59,0.00,,FEW008,0.00,74.00,VWS V14.01,2013-02-01 06:26:00,
2013-02-01 01:31:00,56.2,42.1,30.15,NW,315,6.0,11.0,59,0.00,,FEW008,0.00,74.00,VWS V14.01,2013-02-01 06:31:00,
2013-02-01 01:36:00,56.2,42.5,30.15,NNW,327,6.0,9.0,60,0.00,,FEW008,0.00,74.00,VWS V14.01,2013-02-01 06:36:00,
2013-02-01 01:41:00,56.1,42.4,30.15,North,5,4.0,10.0,60,0.00,,FEW008,0.00,74.00,VWS V14.01,2013-02-01 06:41:00,
2013-02-01 01:46:00,56.0,41.9,30.15,NNW,348,4.0,10.0,59,0.00,,FEW008,0.00,74.00,VWS V14.01,2013-02-01 06:46:00,
2013-02-01 01:51:00,55.9,42.2,30.15,North,360,10.0,10.0,60,0.00,,FEW008,0.00,74.00,VWS V14.01,2013-02-01 06:51:00,
2013-02-01 01:56:00,55.9,42.2,30.15,NNW,327,3.0,10.0,60,0.00,,FEW008,0.00,74.00,VWS V14.01,2013-02-01 06:56:00,
2013-02-01 02:01:00,55.7,42.5,30.15,NNW,336,7.0,7.0,61,0.00,,FEW008,0.00,74.00,VWS V14.01,2013-02-01 07:01:00,
2013-02-01 02:06:00,55.6,42.8,30.15,North,355,4.0,7.0,62,0.00,,FEW008,0.00,74.00,VWS V14.01,2013-02-01 07:06:00,
2013-02-01 02:11:00,55.4,43.0,30.15,NNW,331,6.0,6.0,63,0.00,,FEW008,0.00,74.00,VWS V14.01,2013-02-01 07:11:00,
2013-02-01 02:16:00,55.3,42.9,30.15,NNW,329,2.0,6.0,63,0.00,,FEW008,0.00,74.00,VWS V14.01,2013-02-01 07:16:00,
2013-02-01 02:21:00,55.1,42.8,30.15,NW,326,4.0,7.0,63,0.00,,FEW008,0.00,74.00,VWS V14.01,2013-02-01 07:21:00,
2013-02-01 02:26:00,55.0,42.2,30.15,NNW,337,3.0,8.0,62,0.00,,FEW008,0.00,74.00,VWS V14.01,2013-02-01 07:26:00,
2013-02-01 02:31:00,54.8,41.6,30.14,NW,316,9.0,9.0,61,0.00,,FEW008,0.00,74.00,VWS V14.01,2013-02-01 07:31:00,
2013-02-01 02:36:00,54.8,41.2,30.15,NNW,342,4.0,7.0,60,0.00,,FEW008,0.00,74.00,VWS V14.01,2013-02-01 07:36:00,
2013-02-01 02:41:00,54.6,41.0,30.15,WNW,298,9.0,9.0,60,0.00,,FEW008,0.00,74.00,VWS V14.01,2013-02-01 07:41:00,
2013-02-01 02:46:00,54.6,40.6,30.15,NNW,335,5.0,10.0,59,0.00,,FEW008,0.00,74.00,VWS V14.01,2013-02-01 07:46:00,
2013-02-01 02:51:00,54.6,41.0,30.15,North,355,5.0,9.0,60,0.00,,FEW008,0.00,74.00,VWS V14.01,2013-02-01 07:51:00,
2013-02-01 02:56:00,54.6,40.1,30.15,NW,313,4.0,10.0,58,0.00,,FEW008,0.00,74.00,VWS V14.01,2013-02-01 07:56:00,
2013-02-01 03:01:00,54.6,41.0,30.14,NW,324,8.0,9.0,60,0.00,,FEW008,0.00,74.00,VWS V14.01,2013-02-01 08:01:00,
2013-02-01 03:06:00,54.6,40.6,30.15,North,355,2.0,6.0,59,0.00,,FEW008,0.00,74.00,VWS V14.01,2013-02-01 08:06:00,
2013-02-01 03:11:00,54.5,40.5,30.15,NW,315,6.0,9.0,59,0.00,,FEW008,0.00,74.00,VWS V14.01,2013-02-01 08:11:00,
2013-02-01 03:16:00,54.4,40.8,30.15,NNW,348,6.0,10.0,60,0.00,,FEW008,0.00,74.00,VWS V14.01,2013-02-01 08:16:00,
2013-02-01 03:21:00,54.3,40.3,30.15,NW,323,3.0,8.0,59,0.00,,FEW008,0.00,74.00,VWS V14.01,2013-02-01 08:21:00,
2013-02-01 03:26:00,54.2,40.6,30.15,NNW,340,3.0,10.0,60,0.00,,FEW008,0.00,74.00,VWS V14.01,2013-02-01 08:26:00,
2013-02-01 03:31:00,54.1,41.0,30.15,NW,309,3.0,10.0,61,0.00,,FEW008,0.00,74.00,VWS V14.01,2013-02-01 08:31:00,
2013-02-01 03:36:00,53.9,40.8,30.14,NNW,343,4.0,6.0,61,0.00,,FEW008,0.00,74.00,VWS V14.01,2013-02-01 08:36:00,
2013-02-01 03:41:00,53.7,40.6,30.15,NW,325,4.0,9.0,61,0.00,,FEW008,0.00,74.00,VWS V14.01,2013-02-01 08:41:00,
2013-02-01 03:46:00,53.5,40.4,30.14,WNW,303,1.0,7.0,61,0.00,,FEW008,0.00,74.00,VWS V14.01,2013-02-01 08:46:00,
2013-02-01 03:51:00,53.3,40.6,30.14,NNW,341,4.0,6.0,62,0.00,,FEW008,0.00,74.00,VWS V14.01,2013-02-01 08:51:00,
2013-02-01 03:56:00,53.1,40.8,30.14,NNW,341,2.0,6.0,63,0.00,,FEW008,0.00,74.00,VWS V14.01,2013-02-01 08:56:00,
2013-02-01 04:01:00,53.0,40.8,30.14,NNW,331,6.0,6.0,63,0.00,,FEW008,0.00,74.00,VWS V14.01,2013-02-01 09:01:00,
2013-02-01 04:06:00,52.8,41.0,30.14,NNW,336,5.0,6.0,64,0.00,,FEW008,0.00,74.00,VWS V14.01,2013-02-01 09:06:00,
2013-02-01 04:11:00,52.7,40.9,30.14,NW,321,7.0,7.0,64,0.00,,FEW008,0.00,74.00,VWS V14.01,2013-02-01 09:11:00,
2013-02-01 04:16:00,52.6,41.2,30.14,NNW,332,3.0,8.0,65,0.00,,FEW008,0.00,74.00,VWS V14.01,2013-02-01 09:16:00,
2013-02-01 04:21:00,52.4,41.4,30.14,NNW,348,4.0,5.0,66,0.00,,FEW008,0.00,74.00,VWS V14.01,2013-02-01 09:21:00,
2013-02-01 04:26:00,52.3,41.7,30.14,NNW,330,5.0,7.0,67,0.00,,FEW008,0.00,74.00,VWS V14.01,2013-02-01 09:26:00,
2013-02-01 04:31:00,52.2,41.6,30.14,NNW,345,4.0,7.0,67,0.00,,FEW008,0.00,74.00,VWS V14.01,2013-02-01 09:31:00,
2013-02-01 04:36:00,52.1,41.5,30.14,NNW,347,4.0,8.0,67,0.00,,FEW008,0.00,74.00,VWS V14.01,2013-02-01 09:36:00,
2013-02-01 04:41:00,52.1,41.5,30.14,NNW,336,3.0,9.0,67,0.00,,FEW008,0.00,74.00,VWS V14.01,2013-02-01 09:41:00,
2013-02-01 04:46:00,52.1,41.5,30.14,NNW,327,3.0,7.0,67,0.00,,FEW008,0.00,74.00,VWS V14.01,2013-02-01 09:46:00,
2013-02-01 04:51:00,52.0,41.8,30.15,North,355,4.0,9.0,68,0.00,,FEW008,0.00,74.00,VWS V14.01,2013-02-01 09:51:00,
2013-02-01 04:56:00,51.9,41.7,30.15,NW,313,5.0,7.0,68,0.00,,FEW008,0.00,74.00,VWS V14.01,2013-02-01 09:56:00,
2013-02-01 05:01:00,51.9,42.1,30.15,North,360,3.0,10.0,69,0.00,,FEW008,0.00,74.00,VWS V14.01,2013-02-01 10:01:00,
2013-02-01 05:06:00,51.8,42.0,30.15,NW,313,2.0,7.0,69,0.00,,FEW008,0.00,74.00,VWS V14.01,2013-02-01 10:06:00,
2013-02-01 05:11:00,51.7,41.9,30.15,NNW,348,3.0,6.0,69,0.00,,FEW008,0.00,74.00,VWS V14.01,2013-02-01 10:11:00,
2013-02-01 05:16:00,51.7,41.9,30.15,NW,325,6.0,10.0,69,0.00,,FEW008,0.00,74.00,VWS V14.01,2013-02-01 10:16:00,
2013-02-01 05:21:00,51.6,42.2,30.15,NNW,338,4.0,10.0,70,0.00,,FEW008,0.00,74.00,VWS V14.01,2013-02-01 10:21:00,
2013-02-01 05:26:00,51.6,42.2,30.15,NNW,340,6.0,8.0,70,0.00,,FEW008,0.00,74.00,VWS V14.01,2013-02-01 10:26:00,
2013-02-01 05:31:00,51.6,42.2,30.15,NW,323,6.0,10.0,70,0.00,,FEW008,0.00,74.00,VWS V14.01,2013-02-01 10:31:00,
2013-02-01 05:36:00,51.7,42.6,30.16,North,5,5.0,11.0,71,0.00,,FEW008,0.00,74.00,VWS V14.01,2013-02-01 10:36:00,
2013-02-01 05:41:00,51.7,42.6,30.16,North,355,8.0,11.0,71,0.00,,FEW008,0.00,74.00,VWS V14.01,2013-02-01 10:41:00,
2013-02-01 05:46:00,51.9,42.8,30.16,NNW,332,6.0,9.0,71,0.00,,FEW008,0.00,74.00,VWS V14.01,2013-02-01 10:46:00,
2013-02-01 05:51:00,52.0,42.9,30.16,North,355,7.0,10.0,71,0.00,,FEW008,0.00,74.00,VWS V14.01,2013-02-01 10:51:00,
2013-02-01 05:56:00,52.1,43.0,30.16,NW,324,9.0,11.0,71,0.00,,FEW008,0.00,74.00,VWS V14.01,2013-02-01 10:56:00,
2013-02-01 06:01:00,52.2,43.1,30.16,NW,325,11.0,11.0,71,0.00,,FEW008,0.00,74.00,VWS V14.01,2013-02-01 11:01:00,
2013-02-01 06:06:00,52.3,42.8,30.16,NNW,348,5.0,12.0,70,0.00,,FEW008,0.00,74.00,VWS V14.01,2013-02-01 11:06:00,
2013-02-01 06:11:00,52.3,42.8,30.17,NNW,343,5.0,12.0,70,0.00,,FEW008,0.00,74.00,VWS V14.01,2013-02-01 11:11:00,
2013-02-01 06:16:00,52.4,42.9,30.17,North,5,6.0,13.0,70,0.00,,FEW008,0.00,74.00,VWS V14.01,2013-02-01 11:16:00,
2013-02-01 06:21:00,52.3,42.8,30.17,NNW,346,5.0,11.0,70,0.00,,FEW008,0.00,74.00,VWS V14.01,2013-02-01 11:21:00,
2013-02-01 06:26:00,52.4,42.9,30.17,NNW,331,6.0,9.0,70,0.00,,FEW008,0.00,74.00,VWS V14.01,2013-02-01 11:26:00,
2013-02-01 06:31:00,52.3,42.8,30.17,North,351,9.0,12.0,70,0.00,,FEW008,0.00,74.00,VWS V14.01,2013-02-01 11:31:00,
2013-02-01 06:36:00,52.3,42.8,30.17,NNW,328,6.0,9.0,70,0.00,,FEW008,0.00,74.00,VWS V14.01,2013-02-01 11:36:00,
2013-02-01 06:41:00,52.2,43.1,30.17,North,355,4.0,9.0,71,0.00,,FEW008,0.00,74.00,VWS V14.01,2013-02-01 11:41:00,
2013-02-01 06:46:00,52.1,43.0,30.18,NNE,24,5.0,11.0,71,0.00,,FEW008,0.00,74.00,VWS V14.01,2013-02-01 11:46:00,
2013-02-01 06:51:00,52.2,43.1,30.18,NNW,327,5.0,10.0,71,0.00,,FEW008,0.00,74.00,VWS V14.01,2013-02-01 11:51:00,
2013-02-01 06:56:00,52.2,43.1,30.18,NNW,333,4.0,11.0,71,0.00,,CLR,0.00,76.00,VWS V14.01,2013-02-01 11:56:00,
2013-02-01 07:01:00,52.2,43.5,30.18,North,355,3.0,7.0,72,0.00,,CLR,0.00,76.00,VWS V14.01,2013-02-01 12:01:00,
2013-02-01 07:06:00,52.2,43.5,30.18,North,5,4.0,7.0,72,0.00,,CLR,0.00,77.00,VWS V14.01,2013-02-01 12:06:00,
2013-02-01 07:11:00,52.3,43.5,30.19,NNW,338,5.0,7.0,72,0.00,,CLR,0.00,81.00,VWS V14.01,2013-02-01 12:11:00,
2013-02-01 07:16:00,52.2,43.5,30.19,North,351,5.0,8.0,72,0.00,,CLR,0.00,84.00,VWS V14.01,2013-02-01 12:16:00,
2013-02-01 07:21:00,52.3,43.9,30.19,North,5,5.0,10.0,73,0.00,,CLR,0.00,88.00,VWS V14.01,2013-02-01 12:21:00,
2013-02-01 07:26:00,52.5,44.1,30.19,NNW,348,4.0,10.0,73,0.00,,CLR,0.00,91.00,VWS V14.01,2013-02-01 12:26:00,
2013-02-01 07:31:00,52.7,44.3,30.19,North,360,4.0,11.0,73,0.00,,CLR,0.00,98.00,VWS V14.01,2013-02-01 12:31:00,
2013-02-01 07:36:00,53.0,45.0,30.20,NNW,348,4.0,7.0,74,0.00,,CLR,0.00,111.00,VWS V14.01,2013-02-01 12:36:00,
2013-02-01 07:41:00,53.3,45.2,30.19,NW,310,7.0,12.0,74,0.00,,CLR,0.00,123.00,VWS V14.01,2013-02-01 12:41:00,
2013-02-01 07:46:00,53.4,44.6,30.20,North,355,11.0,13.0,72,0.00,,CLR,0.00,139.00,VWS V14.01,2013-02-01 12:46:00,
2013-02-01 07:51:00,53.6,44.8,30.20,NNW,342,5.0,12.0,72,0.00,,CLR,0.00,155.00,VWS V14.01,2013-02-01 12:51:00,
2013-02-01 07:56:00,53.9,45.1,30.20,North,355,10.0,12.0,72,0.00,,CLR,0.00,169.00,VWS V14.01,2013-02-01 12:56:00,
2013-02-01 08:01:00,54.1,44.9,30.20,North,350,10.0,15.0,71,0.00,,CLR,0.00,190.00,VWS V14.01,2013-02-01 13:01:00,
2013-02-01 08:06:00,54.4,45.2,30.21,North,360,9.0,12.0,71,0.00,,CLR,0.00,211.00,VWS V14.01,2013-02-01 13:06:00,
2013-02-01 08:11:00,54.7,45.1,30.21,North,360,10.0,14.0,70,0.00,,CLR,0.00,227.00,VWS V14.01,2013-02-01 13:11:00,
2013-02-01 08:16:00,54.8,45.2,30.21,NNE,17,7.0,18.0,70,0.00,,CLR,0.00,251.00,VWS V14.01,2013-02-01 13:16:00,
2013-02-01 08:21:00,55.2,45.6,30.21,NW,309,13.0,14.0,70,0.00,,CLR,0.00,271.00,VWS V14.01,2013-02-01 13:21:00,
2013-02-01 08:26:00,55.4,45.8,30.22,North,360,6.0,12.0,70,0.00,,CLR,0.00,287.00,VWS V14.01,2013-02-01 13:26:00,
2013-02-01 08:31:00,55.7,45.7,30.22,NNW,346,6.0,13.0,69,0.00,,CLR,0.00,304.00,VWS V14.01,2013-02-01 13:31:00,
2013-02-01 08:36:00,55.9,45.9,30.22,NNE,22,10.0,13.0,69,0.00,,CLR,0.00,322.00,VWS V14.01,2013-02-01 13:36:00,
2013-02-01 08:41:00,56.3,46.7,30.22,North,9,6.0,10.0,70,0.00,,CLR,0.00,338.00,VWS V14.01,2013-02-01 13:41:00,
2013-02-01 08:46:00,56.5,46.5,30.22,NNW,329,11.0,12.0,69,0.00,,CLR,0.00,353.00,VWS V14.01,2013-02-01 13:46:00,
2013-02-01 08:51:00,56.3,45.9,30.23,NNW,348,10.0,15.0,68,0.00,,CLR,0.00,371.00,VWS V14.01,2013-02-01 13:51:00,
2013-02-01 08:56:00,56.6,46.2,30.23,North,350,8.0,14.0,68,0.00,,CLR,0.00,385.00,VWS V14.01,2013-02-01 13:56:00,
2013-02-01 09:01:00,56.7,46.3,30.23,NNW,333,10.0,15.0,68,0.00,,CLR,0.00,401.00,VWS V14.01,2013-02-01 14:01:00,
2013-02-01 09:06:00,57.0,46.6,30.23,NNW,328,12.0,13.0,68,0.00,,CLR,0.00,415.00,VWS V14.01,2013-02-01 14:06:00,
2013-02-01 09:11:00,57.5,47.0,30.23,NNW,345,3.0,11.0,68,0.00,,CLR,0.00,432.00,VWS V14.01,2013-02-01 14:11:00,
2013-02-01 09:16:00,58.3,47.8,30.23,NNE,18,7.0,10.0,68,0.00,,CLR,0.00,450.00,VWS V14.01,2013-02-01 14:16:00,
2013-02-01 09:21:00,58.2,47.3,30.24,NNE,13,10.0,14.0,67,0.00,,CLR,0.00,466.00,VWS V14.01,2013-02-01 14:21:00,
2013-02-01 09:26:00,58.5,47.6,30.24,NW,320,10.0,13.0,67,0.00,,CLR,0.00,480.00,VWS V14.01,2013-02-01 14:26:00,
2013-02-01 09:31:00,58.9,48.0,30.24,NNW,346,4.0,11.0,67,0.00,,CLR,0.00,494.00,VWS V14.01,2013-02-01 14:31:00,
2013-02-01 09:36:00,59.3,48.4,30.24,NW,307,6.0,12.0,67,0.00,,CLR,0.00,508.00,VWS V14.01,2013-02-01 14:36:00,
2013-02-01 09:41:00,59.5,48.2,30.24,NNE,22,11.0,15.0,66,0.00,,CLR,0.00,522.00,VWS V14.01,2013-02-01 14:41:00,
2013-02-01 09:46:00,59.5,48.5,30.24,NW,319,9.0,12.0,67,0.00,,CLR,0.00,536.00,VWS V14.01,2013-02-01 14:46:00,
2013-02-01 09:51:00,60.3,49.3,30.25,NW,311,10.0,10.0,67,0.00,,CLR,0.00,552.00,VWS V14.01,2013-02-01 14:51:00,
2013-02-01 09:56:00,60.6,49.6,30.25,North,5,7.0,14.0,67,0.00,,CLR,0.00,564.00,VWS V14.01,2013-02-01 14:56:00,
2013-02-01 10:01:00,60.9,49.9,30.25,NNW,341,5.0,15.0,67,0.00,,CLR,0.00,577.00,VWS V14.01,2013-02-01 15:01:00,
2013-02-01 10:06:00,61.3,49.9,30.25,NNE,15,10.0,16.0,66,0.00,,CLR,0.00,589.00,VWS V14.01,2013-02-01 15:06:00,
2013-02-01 10:11:00,61.8,50.7,30.25,North,350,9.0,13.0,67,0.00,,CLR,0.00,603.00,VWS V14.01,2013-02-01 15:11:00,
2013-02-01 10:16:00,62.2,50.7,30.25,North,355,5.0,12.0,66,0.00,,CLR,0.00,612.00,VWS V14.01,2013-02-01 15:16:00,
2013-02-01 10:21:00,62.9,51.8,30.25,North,5,11.0,12.0,67,0.00,,CLR,0.00,626.00,VWS V14.01,2013-02-01 15:21:00,
2013-02-01 10:26:00,63.2,51.2,30.25,NNW,348,9.0,11.0,65,0.00,,CLR,0.00,640.00,VWS V14.01,2013-02-01 15:26:00,
2013-02-01 10:31:00,63.3,51.3,30.24,North,355,11.0,14.0,65,0.00,,CLR,0.00,650.00,VWS V14.01,2013-02-01 15:31:00,
2013-02-01 10:36:00,63.4,51.9,30.24,North,5,10.0,14.0,66,0.00,,CLR,0.00,654.00,VWS V14.01,2013-02-01 15:36:00,
2013-02-01 10:41:00,63.6,51.6,30.24,NW,326,7.0,16.0,65,0.00,,CLR,0.00,647.00,VWS V14.01,2013-02-01 15:41:00,
2013-02-01 10:46:00,63.8,52.2,30.24,NNE,15,7.0,15.0,66,0.00,,CLR,0.00,664.00,VWS V14.01,2013-02-01 15:46:00,
2013-02-01 10:51:00,64.5,52.5,30.24,North,5,11.0,12.0,65,0.00,,CLR,0.00,693.00,VWS V14.01,2013-02-01 15:51:00,
2013-02-01 10:56:00,64.6,52.6,30.24,NNW,336,12.0,13.0,65,0.00,,CLR,0.00,701.00,VWS V14.01,2013-02-01 15:56:00,
2013-02-01 11:01:00,64.7,53.1,30.24,North,355,10.0,13.0,66,0.00,,CLR,0.00,661.00,VWS V14.01,2013-02-01 16:01:00,
2013-02-01 11:06:00,65.0,53.0,30.24,NW,317,9.0,12.0,65,0.00,,CLR,0.00,700.00,VWS V14.01,2013-02-01 16:06:00,
2013-02-01 11:11:00,65.4,54.2,30.23,North,355,12.0,12.0,67,0.00,,CLR,0.00,721.00,VWS V14.01,2013-02-01 16:11:00,
2013-02-01 11:16:00,66.0,53.9,30.23,North,355,10.0,14.0,65,0.00,,CLR,0.00,728.00,VWS V14.01,2013-02-01 16:16:00,
2013-02-01 11:21:00,66.5,54.4,30.23,NW,326,6.0,14.0,65,0.00,,CLR,0.00,737.00,VWS V14.01,2013-02-01 16:21:00,
2013-02-01 11:26:00,66.8,54.2,30.24,North,11,8.0,12.0,64,0.00,,CLR,0.00,738.00,VWS V14.01,2013-02-01 16:26:00,
2013-02-01 11:31:00,67.4,54.8,30.24,North,351,12.0,13.0,64,0.00,,CLR,0.00,747.00,VWS V14.01,2013-02-01 16:31:00,
2013-02-01 11:36:00,67.4,54.8,30.23,NNE,28,11.0,14.0,64,0.00,,CLR,0.00,752.00,VWS V14.01,2013-02-01 16:36:00,
2013-02-01 11:41:00,67.7,54.7,30.23,North,11,7.0,13.0,63,0.00,,CLR,0.00,719.00,VWS V14.01,2013-02-01 16:41:00,
2013-02-01 11:46:00,67.6,54.6,30.23,NNE,17,7.0,13.0,63,0.00,,CLR,0.00,761.00,VWS V14.01,2013-02-01 16:46:00,
2013-02-01 11:51:00,67.8,55.2,30.23,NNW,333,11.0,13.0,64,0.00,,CLR,0.00,756.00,VWS V14.01,2013-02-01 16:51:00,
2013-02-01 11:56:00,68.5,55.0,30.23,North,5,12.0,12.0,62,0.00,,CLR,0.00,765.00,VWS V14.01,2013-02-01 16:56:00,
2013-02-01 12:01:00,68.2,54.2,30.23,North,5,7.0,11.0,61,0.00,,FEW060,0.00,772.00,VWS V14.01,2013-02-01 17:01:00,
2013-02-01 12:06:00,68.6,54.6,30.23,NNE,15,12.0,15.0,61,0.00,,FEW060,0.00,775.00,VWS V14.01,2013-02-01 17:06:00,
2013-02-01 12:11:00,69.2,56.1,30.23,NW,319,12.0,12.0,63,0.00,,FEW060,0.00,784.00,VWS V14.01,2013-02-01 17:11:00,
2013-02-01 12:16:00,69.1,54.7,30.23,NNE,16,6.0,14.0,60,0.00,,FEW060,0.00,802.00,VWS V14.01,2013-02-01 17:16:00,
2013-02-01 12:21:00,69.3,54.8,30.23,North,9,9.0,15.0,60,0.00,,FEW060,0.00,824.00,VWS V14.01,2013-02-01 17:21:00,
2013-02-01 12:26:00,69.5,54.6,30.23,NNE,13,9.0,14.0,59,0.00,,FEW060,0.00,849.00,VWS V14.01,2013-02-01 17:26:00,
2013-02-01 12:31:00,69.5,55.5,30.23,North,5,12.0,12.0,61,0.00,,FEW060,0.00,881.00,VWS V14.01,2013-02-01 17:31:00,
2013-02-01 12:36:00,68.9,54.5,30.22,North,9,7.0,14.0,60,0.00,,FEW060,0.00,863.00,VWS V14.01,2013-02-01 17:36:00,
2013-02-01 12:41:00,68.8,54.8,30.22,North,360,10.0,15.0,61,0.00,,FEW060,0.00,176.00,VWS V14.01,2013-02-01 17:41:00,
2013-02-01 12:46:00,69.0,55.5,30.22,NNE,19,7.0,13.0,62,0.00,,FEW060,0.00,831.00,VWS V14.01,2013-02-01 17:46:00,
2013-02-01 12:51:00,69.4,55.4,30.22,NNW,339,11.0,16.0,61,0.00,,FEW060,0.00,849.00,VWS V14.01,2013-02-01 17:51:00,
2013-02-01 12:56:00,69.2,55.6,30.21,NNE,16,15.0,16.0,62,0.00,,SCT040,0.00,837.00,VWS V14.01,2013-02-01 17:56:00,
2013-02-01 13:01:00,68.7,55.2,30.21,NNE,13,6.0,16.0,62,0.00,,SCT040,0.00,193.00,VWS V14.01,2013-02-01 18:01:00,
2013-02-01 13:06:00,68.9,55.4,30.20,NE,53,5.0,14.0,62,0.00,,SCT040,0.00,828.00,VWS V14.01,2013-02-01 18:06:00,
2013-02-01 13:11:00,69.5,55.9,30.20,North,10,10.0,12.0,62,0.00,,SCT040,0.00,807.00,VWS V14.01,2013-02-01 18:11:00,
2013-02-01 13:16:00,69.4,56.3,30.20,NNE,19,10.0,13.0,63,0.00,,SCT040,0.00,896.00,VWS V14.01,2013-02-01 18:16:00,
2013-02-01 13:21:00,69.1,55.5,30.20,NNE,13,11.0,14.0,62,0.00,,SCT040,0.00,816.00,VWS V14.01,2013-02-01 18:21:00,
2013-02-01 13:26:00,69.4,55.4,30.19,North,10,9.0,12.0,61,0.00,,SCT040,0.00,796.00,VWS V14.01,2013-02-01 18:26:00,
2013-02-01 13:31:00,69.9,55.8,30.20,NNW,343,8.0,17.0,61,0.00,,SCT040,0.00,817.00,VWS V14.01,2013-02-01 18:31:00,
2013-02-01 13:36:00,70.2,55.7,30.20,North,11,14.0,15.0,60,0.00,,SCT040,0.00,823.00,VWS V14.01,2013-02-01 18:36:00,
2013-02-01 13:41:00,69.4,55.4,30.19,North,360,9.0,13.0,61,0.00,,SCT040,0.00,872.00,VWS V14.01,2013-02-01 18:41:00,
2013-02-01 13:46:00,69.5,55.5,30.20,NNE,13,11.0,13.0,61,0.00,,SCT040,0.00,199.00,VWS V14.01,2013-02-01 18:46:00,
2013-02-01 13:51:00,69.6,55.6,30.19,North,355,14.0,15.0,61,0.00,,SCT040,0.00,824.00,VWS V14.01,2013-02-01 18:51:00,
2013-02-01 13:56:00,69.5,55.9,30.19,NNE,12,5.0,14.0,62,0.00,,SCT040,0.00,320.00,VWS V14.01,2013-02-01 18:56:00,
2013-02-01 14:01:00,69.3,54.8,30.19,North,5,11.0,15.0,60,0.00,,SCT040,0.00,220.00,VWS V14.01,2013-02-01 19:01:00,
2013-02-01 14:06:00,68.9,54.9,30.18,NNE,12,10.0,14.0,61,0.00,,SCT040,0.00,241.00,VWS V14.01,2013-02-01 19:06:00,
2013-02-01 14:11:00,69.4,56.3,30.18,North,349,8.0,13.0,63,0.00,,SCT040,0.00,833.00,VWS V14.01,2013-02-01 19:11:00,
2013-02-01 14:16:00,69.5,55.5,30.18,NNE,17,9.0,17.0,61,0.00,,SCT040,0.00,199.00,VWS V14.01,2013-02-01 19:16:00,
2013-02-01 14:21:00,69.4,54.9,30.18,NNE,13,9.0,14.0,60,0.00,,SCT040,0.00,747.00,VWS V14.01,2013-02-01 19:21:00,
2013-02-01 14:26:00,69.8,55.3,30.18,NNE,15,12.0,16.0,60,0.00,,SCT040,0.00,795.00,VWS V14.01,2013-02-01 19:26:00,
2013-02-01 14:31:00,70.3,56.2,30.18,NE,34,5.0,15.0,61,0.00,,SCT040,0.00,744.00,VWS V14.01,2013-02-01 19:31:00,
2013-02-01 14:36:00,70.4,56.3,30.18,NNE,13,9.0,14.0,61,0.00,,SCT040,0.00,756.00,VWS V14.01,2013-02-01 19:36:00,
2013-02-01 14:41:00,69.8,55.8,30.18,NNE,22,8.0,13.0,61,0.00,,SCT040,0.00,283.00,VWS V14.01,2013-02-01 19:41:00,
2013-02-01 14:46:00,69.7,55.7,30.18,North,5,7.0,14.0,61,0.00,,SCT040,0.00,297.00,VWS V14.01,2013-02-01 19:46:00,
2013-02-01 14:51:00,70.2,56.1,30.18,North,5,11.0,14.0,61,0.00,,SCT040,0.00,673.00,VWS V14.01,2013-02-01 19:51:00,
2013-02-01 14:56:00,69.6,55.1,30.18,NNE,17,8.0,17.0,60,0.00,,SCT040,0.00,207.00,VWS V14.01,2013-02-01 19:56:00,
2013-02-01 15:01:00,69.5,55.9,30.18,North,5,9.0,14.0,62,0.00,,SCT040,0.00,715.00,VWS V14.01,2013-02-01 20:01:00,
2013-02-01 15:06:00,69.5,55.9,30.18,North,349,13.0,17.0,62,0.00,,SCT040,0.00,193.00,VWS V14.01,2013-02-01 20:06:00,
2013-02-01 15:11:00,69.1,55.5,30.18,North,5,10.0,14.0,62,0.00,,SCT040,0.00,172.00,VWS V14.01,2013-02-01 20:11:00,
2013-02-01 15:16:00,69.2,56.1,30.18,NNE,23,10.0,15.0,63,0.00,,SCT040,0.00,659.00,VWS V14.01,2013-02-01 20:16:00,
2013-02-01 15:21:00,70.0,56.0,30.18,NNE,12,11.0,16.0,61,0.00,,SCT030,0.00,661.00,VWS V14.01,2013-02-01 20:21:00,
2013-02-01 15:26:00,69.2,55.2,30.18,North,360,11.0,15.0,61,0.00,,SCT030,0.00,163.00,VWS V14.01,2013-02-01 20:26:00,
2013-02-01 15:31:00,69.2,55.2,30.17,North,10,16.0,17.0,61,0.00,,SCT030,0.00,533.00,VWS V14.01,2013-02-01 20:31:00,
2013-02-01 15:36:00,69.5,55.5,30.18,NNE,14,10.0,15.0,61,0.00,,SCT030,0.00,515.00,VWS V14.01,2013-02-01 20:36:00,
2013-02-01 15:41:00,69.7,55.2,30.18,North,5,9.0,14.0,60,0.00,,SCT030,0.00,513.00,VWS V14.01,2013-02-01 20:41:00,
2013-02-01 15:46:00,69.9,55.4,30.18,NNE,28,12.0,15.0,60,0.00,,SCT030,0.00,543.00,VWS V14.01,2013-02-01 20:46:00,
2013-02-01 15:51:00,69.9,54.9,30.18,NNW,342,14.0,15.0,59,0.00,,SCT030,0.00,482.00,VWS V14.01,2013-02-01 20:51:00,
2013-02-01 15:56:00,69.7,54.8,30.17,NE,36,6.0,15.0,59,0.00,,SCT030,0.00,450.00,VWS V14.01,2013-02-01 20:56:00,
2013-02-01 16:01:00,69.7,54.8,30.17,North,11,15.0,15.0,59,0.00,,SCT030,0.00,436.00,VWS V14.01,2013-02-01 21:01:00,
2013-02-01 16:06:00,69.5,54.6,30.18,North,360,10.0,15.0,59,0.00,,SCT030,0.00,425.00,VWS V14.01,2013-02-01 21:06:00,
2013-02-01 16:11:00,69.6,56.0,30.18,North,5,12.0,14.0,62,0.00,,SCT030,0.00,418.00,VWS V14.01,2013-02-01 21:11:00,
2013-02-01 16:16:00,69.7,54.8,30.18,North,9,11.0,13.0,59,0.00,,SCT030,0.00,450.00,VWS V14.01,2013-02-01 21:16:00,
2013-02-01 16:21:00,69.6,54.2,30.18,NNE,26,11.0,17.0,58,0.00,,SCT030,0.00,432.00,VWS V14.01,2013-02-01 21:21:00,
2013-02-01 16:26:00,69.5,54.6,30.18,NNE,18,7.0,14.0,59,0.00,,SCT030,0.00,397.00,VWS V14.01,2013-02-01 21:26:00,
2013-02-01 16:31:00,69.2,54.7,30.18,North,5,12.0,14.0,60,0.00,,SCT030,0.00,369.00,VWS V14.01,2013-02-01 21:31:00,
2013-02-01 16:36:00,69.1,54.2,30.18,North,11,9.0,14.0,59,0.00,,SCT030,0.00,323.00,VWS V14.01,2013-02-01 21:36:00,
2013-02-01 16:41:00,69.0,54.5,30.18,NNE,26,8.0,15.0,60,0.00,,SCT030,0.00,308.00,VWS V14.01,2013-02-01 21:41:00,
2013-02-01 16:46:00,69.0,54.5,30.18,North,5,3.0,16.0,60,0.00,,SCT030,0.00,285.00,VWS V14.01,2013-02-01 21:46:00,
2013-02-01 16:51:00,68.8,54.4,30.18,North,5,11.0,14.0,60,0.00,,SCT030,0.00,237.00,VWS V14.01,2013-02-01 21:51:00,
2013-02-01 16:56:00,68.6,54.6,30.19,NNE,17,14.0,15.0,61,0.00,,SCT030,0.00,237.00,VWS V14.01,2013-02-01 21:56:00,
2013-02-01 17:01:00,68.3,54.8,30.19,North,355,5.0,13.0,62,0.00,,SCT030,0.00,218.00,VWS V14.01,2013-02-01 22:01:00,
2013-02-01 17:06:00,68.4,55.3,30.19,North,5,6.0,14.0,63,0.00,,SCT030,0.00,209.00,VWS V14.01,2013-02-01 22:06:00,
2013-02-01 17:11:00,68.3,55.2,30.19,NNW,345,8.0,14.0,63,0.00,,SCT030,0.00,193.00,VWS V14.01,2013-02-01 22:11:00,
2013-02-01 17:16:00,68.1,55.0,30.19,North,5,6.0,13.0,63,0.00,,SCT030,0.00,160.00,VWS V14.01,2013-02-01 22:16:00,
2013-02-01 17:21:00,67.9,55.7,30.19,NNE,16,5.0,14.0,65,0.00,,SCT030,0.00,144.00,VWS V14.01,2013-02-01 22:21:00,
2013-02-01 17:26:00,67.5,55.3,30.19,NNE,16,10.0,18.0,65,0.00,,SCT030,0.00,128.00,VWS V14.01,2013-02-01 22:26:00,
2013-02-01 17:31:00,67.4,55.7,30.19,North,5,6.0,12.0,66,0.00,,SCT030,0.00,114.00,VWS V14.01,2013-02-01 22:31:00,
2013-02-01 17:36:00,67.4,55.7,30.19,NNE,21,10.0,13.0,66,0.00,,SCT030,0.00,102.00,VWS V14.01,2013-02-01 22:36:00,
2013-02-01 17:41:00,67.2,55.9,30.19,North,355,3.0,9.0,67,0.00,,SCT030,0.00,95.00,VWS V14.01,2013-02-01 22:41:00,
2013-02-01 17:46:00,66.9,55.6,30.19,NNE,15,13.0,13.0,67,0.00,,SCT030,0.00,90.00,VWS V14.01,2013-02-01 22:46:00,
2013-02-01 17:51:00,66.7,55.8,30.19,North,5,6.0,11.0,68,0.00,,SCT030,0.00,86.00,VWS V14.01,2013-02-01 22:51:00,
2013-02-01 17:56:00,66.5,56.0,30.19,North,9,5.0,13.0,69,0.00,,SCT030,0.00,84.00,VWS V14.01,2013-02-01 22:56:00,
2013-02-01 18:01:00,66.1,55.7,30.19,North,5,9.0,10.0,69,0.00,,SCT030,0.00,79.00,VWS V14.01,2013-02-01 23:01:00,
2013-02-01 18:06:00,65.9,55.8,30.19,North,360,10.0,11.0,70,0.00,,SCT030,0.00,77.00,VWS V14.01,2013-02-01 23:06:00,
2013-02-01 18:11:00,65.5,55.5,30.19,NNE,20,11.0,11.0,70,0.00,,SCT030,0.00,76.00,VWS V14.01,2013-02-01 23:11:00,
2013-02-01 18:16:00,65.3,55.3,30.19,North,9,10.0,12.0,70,0.00,,SCT030,0.00,74.00,VWS V14.01,2013-02-01 23:16:00,
2013-02-01 18:21:00,65.2,55.2,30.19,North,360,6.0,12.0,70,0.00,,SCT030,0.00,74.00,VWS V14.01,2013-02-01 23:21:00,
2013-02-01 18:26:00,65.0,55.0,30.19,North,5,6.0,14.0,70,0.00,,SCT030,0.00,74.00,VWS V14.01,2013-02-01 23:26:00,
2013-02-01 18:31:00,64.7,55.1,30.20,NNW,348,5.0,11.0,71,0.00,,SCT030,0.00,74.00,VWS V14.01,2013-02-01 23:31:00,
2013-02-01 18:36:00,64.4,55.2,30.20,North,351,4.0,10.0,72,0.00,,SCT030,0.00,74.00,VWS V14.01,2013-02-01 23:36:00,
2013-02-01 18:41:00,64.1,55.3,30.20,North,355,5.0,9.0,73,0.00,,SCT030,0.00,74.00,VWS V14.01,2013-02-01 23:41:00,
2013-02-01 18:46:00,63.9,55.5,30.20,North,5,7.0,7.0,74,0.00,,SCT030,0.00,74.00,VWS V14.01,2013-02-01 23:46:00,
2013-02-01 18:51:00,63.8,55.4,30.20,NNE,21,4.0,8.0,74,0.00,,SCT030,0.00,74.00,VWS V14.01,2013-02-01 23:51:00,
2013-02-01 18:56:00,63.6,55.2,30.20,North,355,3.0,8.0,74,0.00,,SCT030,0.00,74.00,VWS V14.01,2013-02-01 23:56:00,
2013-02-01 19:01:00,63.3,55.2,30.20,North,351,3.0,6.0,75,0.00,,SCT030,0.00,74.00,VWS V14.01,2013-02-02 00:01:00,
2013-02-01 19:06:00,63.1,55.1,30.20,North,349,6.0,6.0,75,0.00,,SCT030,0.00,74.00,VWS V14.01,2013-02-02 00:06:00,
2013-02-01 19:11:00,62.9,55.2,30.20,North,355,3.0,6.0,76,0.00,,SCT030,0.00,74.00,VWS V14.01,2013-02-02 00:11:00,
2013-02-01 19:16:00,62.7,55.0,30.20,North,5,5.0,6.0,76,0.00,,SCT030,0.00,74.00,VWS V14.01,2013-02-02 00:16:00,
2013-02-01 19:21:00,62.5,54.8,30.20,NNE,12,6.0,9.0,76,0.00,,SCT030,0.00,74.00,VWS V14.01,2013-02-02 00:21:00,
2013-02-01 19:26:00,62.5,55.2,30.20,North,360,3.0,6.0,77,0.00,,SCT030,0.00,74.00,VWS V14.01,2013-02-02 00:26:00,
2013-02-01 19:31:00,62.4,55.1,30.20,NNE,13,6.0,8.0,77,0.00,,SCT030,0.00,74.00,VWS V14.01,2013-02-02 00:31:00,
2013-02-01 19:36:00,62.2,54.9,30.21,North,9,5.0,6.0,77,0.00,,SCT030,0.00,74.00,VWS V14.01,2013-02-02 00:36:00,
2013-02-01 19:41:00,62.1,54.8,30.21,North,5,5.0,6.0,77,0.00,,SCT030,0.00,74.00,VWS V14.01,2013-02-02 00:41:00,
2013-02-01 19:46:00,61.9,54.6,30.21,NNW,346,4.0,9.0,77,0.00,,SCT030,0.00,74.00,VWS V14.01,2013-02-02 00:46:00,
2013-02-01 19:51:00,61.8,54.5,30.21,NNE,16,5.0,7.0,77,0.00,,SCT030,0.00,74.00,VWS V14.01,2013-02-02 00:51:00,
2013-02-01 19:56:00,61.6,54.3,30.21,North,351,4.0,6.0,77,0.00,,SCT030,0.00,74.00,VWS V14.01,2013-02-02 00:56:00,
2013-02-01 20:01:00,61.5,54.2,30.21,North,360,4.0,7.0,77,0.00,,SCT030,0.00,74.00,VWS V14.01,2013-02-02 01:01:00,
2013-02-01 20:06:00,61.4,54.1,30.21,NNW,333,7.0,9.0,77,0.00,,SCT030,0.00,74.00,VWS V14.01,2013-02-02 01:06:00,
2013-02-01 20:11:00,61.3,54.0,30.21,North,355,5.0,9.0,77,0.00,,SCT030,0.00,74.00,VWS V14.01,2013-02-02 01:11:00,
2013-02-01 20:16:00,61.1,53.8,30.21,North,5,4.0,7.0,77,0.00,,SCT030,0.00,74.00,VWS V14.01,2013-02-02 01:16:00,
2013-02-01 20:21:00,60.9,53.7,30.21,North,360,4.0,9.0,77,0.00,,SCT030,0.00,74.00,VWS V14.01,2013-02-02 01:21:00,
2013-02-01 20:26:00,60.8,53.5,30.21,North,5,4.0,10.0,77,0.00,,SCT030,0.00,74.00,VWS V14.01,2013-02-02 01:26:00,
2013-02-01 20:31:00,60.7,53.5,30.21,North,5,5.0,7.0,77,0.00,,SCT030,0.00,74.00,VWS V14.01,2013-02-02 01:31:00,
2013-02-01 20:36:00,60.6,53.4,30.20,North,5,4.0,6.0,77,0.00,,SCT030,0.00,74.00,VWS V14.01,2013-02-02 01:36:00,
2013-02-01 20:41:00,60.5,53.3,30.21,NNW,348,5.0,10.0,77,0.00,,SCT030,0.00,74.00,VWS V14.01,2013-02-02 01:41:00,
2013-02-01 20:46:00,60.3,53.1,30.21,North,360,4.0,9.0,77,0.00,,SCT030,0.00,74.00,VWS V14.01,2013-02-02 01:46:00,
2013-02-01 20:51:00,60.2,53.0,30.21,North,355,4.0,8.0,77,0.00,,SCT030,0.00,74.00,VWS V14.01,2013-02-02 01:51:00,
2013-02-01 20:56:00,60.0,52.8,30.21,NNE,17,5.0,7.0,77,0.00,,SCT030,0.00,74.00,VWS V14.01,2013-02-02 01:56:00,
2013-02-01 21:01:00,59.9,52.7,30.21,North,355,5.0,7.0,77,0.00,,SCT035,0.00,74.00,VWS V14.01,2013-02-02 02:01:00,
2013-02-01 21:06:00,59.8,52.6,30.21,NNW,338,5.0,6.0,77,0.00,,SCT035,0.00,74.00,VWS V14.01,2013-02-02 02:06:00,
2013-02-01 21:11:00,59.7,52.5,30.21,North,355,3.0,6.0,77,0.00,,SCT035,0.00,74.00,VWS V14.01,2013-02-02 02:11:00,
2013-02-01 21:16:00,59.6,52.4,30.20,NNW,341,4.0,6.0,77,0.00,,SCT035,0.00,74.00,VWS V14.01,2013-02-02 02:16:00,
2013-02-01 21:21:00,59.5,52.3,30.21,North,5,4.0,7.0,77,0.00,,SCT035,0.00,74.00,VWS V14.01,2013-02-02 02:21:00,
2013-02-01 21:26:00,59.5,52.3,30.21,NNW,338,5.0,10.0,77,0.00,,SCT035,0.00,74.00,VWS V14.01,2013-02-02 02:26:00,
2013-02-01 21:31:00,59.5,51.9,30.21,NNW,344,2.0,6.0,76,0.00,,SCT035,0.00,74.00,VWS V14.01,2013-02-02 02:31:00,
2013-02-01 21:36:00,59.4,51.8,30.21,North,355,2.0,6.0,76,0.00,,SCT035,0.00,74.00,VWS V14.01,2013-02-02 02:36:00,
2013-02-01 21:41:00,59.3,51.8,30.21,North,355,2.0,5.0,76,0.00,,SCT035,0.00,74.00,VWS V14.01,2013-02-02 02:41:00,
2013-02-01 21:46:00,59.2,51.7,30.21,North,355,1.0,4.0,76,0.00,,SCT035,0.00,74.00,VWS V14.01,2013-02-02 02:46:00,
2013-02-01 21:51:00,59.0,51.5,30.21,North,355,1.0,4.0,76,0.00,,SCT035,0.00,74.00,VWS V14.01,2013-02-02 02:51:00,
2013-02-01 21:56:00,58.9,51.7,30.21,North,355,4.0,5.0,77,0.00,,SCT035,0.00,74.00,VWS V14.01,2013-02-02 02:56:00,
2013-02-01 22:01:00,58.8,51.6,30.21,North,355,3.0,5.0,77,0.00,,SCT035,0.00,74.00,VWS V14.01,2013-02-02 03:01:00,
2013-02-01 22:06:00,58.7,51.5,30.21,North,355,3.0,5.0,77,0.00,,SCT035,0.00,74.00,VWS V14.01,2013-02-02 03:06:00,
2013-02-01 22:11:00,58.6,51.4,30.21,North,5,4.0,4.0,77,0.00,,SCT035,0.00,74.00,VWS V14.01,2013-02-02 03:11:00,
2013-02-01 22:16:00,58.4,51.6,30.21,North,360,3.0,5.0,78,0.00,,SCT035,0.00,74.00,VWS V14.01,2013-02-02 03:16:00,
2013-02-01 22:21:00,58.3,51.5,30.21,North,360,3.0,5.0,78,0.00,,SCT035,0.00,74.00,VWS V14.01,2013-02-02 03:21:00,
2013-02-01 22:26:00,58.1,51.6,30.21,North,5,3.0,5.0,79,0.00,,SCT035,0.00,74.00,VWS V14.01,2013-02-02 03:26:00,
2013-02-01 22:31:00,58.0,51.5,30.21,North,5,3.0,5.0,79,0.00,,SCT035,0.00,74.00,VWS V14.01,2013-02-02 03:31:00,
2013-02-01 22:36:00,57.9,51.4,30.21,North,360,0.0,4.0,79,0.00,,SCT035,0.00,74.00,VWS V14.01,2013-02-02 03:36:00,
2013-02-01 22:41:00,57.8,51.3,30.21,North,360,3.0,5.0,79,0.00,,SCT035,0.00,74.00,VWS V14.01,2013-02-02 03:41:00,
2013-02-01 22:46:00,57.7,51.6,30.21,North,360,2.0,5.0,80,0.00,,SCT035,0.00,74.00,VWS V14.01,2013-02-02 03:46:00,
2013-02-01 22:51:00,57.7,51.2,30.21,North,360,4.0,6.0,79,0.00,,SCT035,0.00,74.00,VWS V14.01,2013-02-02 03:51:00,
2013-02-01 22:56:00,57.7,51.2,30.21,North,355,5.0,7.0,79,0.00,,SCT035,0.00,74.00,VWS V14.01,2013-02-02 03:56:00,
2013-02-01 23:01:00,57.8,51.3,30.21,NNW,345,5.0,7.0,79,0.00,,SCT035,0.00,74.00,VWS V14.01,2013-02-02 04:01:00,
2013-02-01 23:06:00,57.9,51.1,30.21,NNW,342,6.0,6.0,78,0.00,,SCT035,0.00,74.00,VWS V14.01,2013-02-02 04:06:00,
2013-02-01 23:11:00,58.0,50.8,30.21,NNW,337,5.0,7.0,77,0.00,,SCT035,0.00,74.00,VWS V14.01,2013-02-02 04:11:00,
2013-02-01 23:16:00,58.2,51.0,30.21,North,5,4.0,7.0,77,0.00,,SCT035,0.00,74.00,VWS V14.01,2013-02-02 04:16:00,
2013-02-01 23:21:00,58.2,51.0,30.21,North,351,2.0,5.0,77,0.00,,SCT035,0.00,74.00,VWS V14.01,2013-02-02 04:21:00,
2013-02-01 23:26:00,58.1,50.9,30.21,North,360,5.0,5.0,77,0.00,,SCT035,0.00,74.00,VWS V14.01,2013-02-02 04:26:00,
2013-02-01 23:31:00,58.0,50.8,30.21,North,355,4.0,6.0,77,0.00,,SCT035,0.00,74.00,VWS V14.01,2013-02-02 04:31:00,
2013-02-01 23:36:00,57.9,50.7,30.21,North,350,4.0,6.0,77,0.00,,SCT035,0.00,74.00,VWS V14.01,2013-02-02 04:36:00,
2013-02-01 23:41:00,57.9,50.7,30.21,NNE,13,4.0,6.0,77,0.00,,SCT035,0.00,74.00,VWS V14.01,2013-02-02 04:41:00,
2013-02-01 23:46:00,57.7,50.5,30.21,North,5,4.0,6.0,77,0.00,,SCT035,0.00,74.00,VWS V14.01,2013-02-02 04:46:00,
2013-02-01 23:51:00,57.7,50.5,30.21,North,360,3.0,6.0,77,0.00,,SCT035,0.00,74.00,VWS V14.01,2013-02-02 04:51:00,
2013-02-01 23:56:00,57.7,50.9,30.21,North,351,4.0,5.0,78,0.00,,SCT035,0.00,74.00,VWS V14.01,2013-02-02 04:56:00,